STARLINK-2082 (47367 NORAD) Tracking and Keplerian Element Data

This shows tracking and keplerian element data for the satellite.

Feedback or suggestion? Click here.




ElementValue
Catalog47367
NameSTARLINK-2082
Epoch Orbit175
Epoch Day101.91668981
Epoch Year2021
RAAN189.6879
Inclination53.0574
Eccentricity0.0001057
Argument of Perigee84.3021
Mean Anonmoly208.7673
Mean Motion15.06416148
Decay Rate-0.00036889
L11 47367U 21005U 21101.91668981 -.00036889 00000-0 -24694-2 0 9991
L22 47367 53.0574 189.6879 0001057 84.3021 208.7673 15.06416148 1754

Live tracking and technical data element details for STARLINK-2082 (NORAD 47367). STARLINK-2082 can be tracked NOW for your location showing map with azimuth and elevation plus other details from your city location.

Track the satellite on the map from your city or location and see movement details for azimuth, elevation, latitude, longitude, range, height, and movement on the map or in text.







IsCatalogInMostPopularTable: catalog: 47367, numindb: 13
Update: records affected: 1



GetName: 47367 STARLINK-2082

Hit Count: updated at: Tue, 13 Apr 2021 04:48:09 GMT